sat.trackr.live / text

‹ back to catalog

STARLINK-5039

NORAD 57247 · 2023-094AF

PAYLOAD ACTIVE UNKNOWN

§ Identity

Operator
Country
US
Launch date
2023-07-07
Launch site
AFWTR
Launch vehicle
Mass (kg)
RCS (m²)

Purposes: comms

External: N2YO · Heavens-Above · Gunter

§ Orbital elements

Epoch: 2026-05-24T19:06:47.563776Z

Period
94.27 min
Inclination
43.0030°
Eccentricity
0.0001679
Mean motion
15.27576034 rev/d
Perigee alt
481.9 km
Apogee alt
484.2 km
Semi-major
6,861.2 km
B*
3.4023e-5
RAAN
309.7214°
Arg perigee
265.1311°
Mean anomaly
94.9349°
Rev number
15,888

§ Raw data

STARLINK-50391 57247U 23094AF  26144.79638384  .00000674  00000+0  34023-4 0  99902 57247  43.0030 309.7214 0001679 265.1311  94.9349 15.27576034158883

JSON: /api/v1/satellites/57247 · /tle

For live sub-satellite position, see the globe view (requires WebGL).

§ Visibility from observer

Set your observer location to see the next 7 days of passes ≥ 10°. The values pass through the URL so the page stays shareable.

No JS? Fill the form by hand. The geolocation button needs JavaScript.